DW4691 Weather Reports


Display with metric or nautical units.
time (UTC)temp
F
wind
direction
speed
MPH
gust
MPH
rain 1hr
in
rain 24hr
in
rain mn
in
humidity
%
barometer
mb
20191208084803 44 88 0.0 0.0 0.00 0.00 0.00 94 1021.2
20191208083212 45 88 0.0 0.0 0.00 0.00 0.00 93 1021.2
20191208081737 45 88 0.0 0.0 0.00 0.00 0.00 93 1021.3
20191208080147 45 88 0.0 0.0 0.00 0.00 0.00 94 1020.9
20191208074629 45 88 0.0 0.0 0.00 0.00 0.00 94 1020.9
20191208073127 45 88 0.0 0.0 0.00 0.00 0.00 93 1021.3
20191208071707 45 88 0.0 0.0 0.00 0.00 0.00 93 1021.5
20191208070210 46 88 0.0 0.0 0.00 0.00 0.00 93 1021.4
20191208064656 46 88 0.0 0.0 0.00 0.00 0.00 93 1021.7
20191208063114 46 88 0.0 0.0 0.00 0.00 0.00 93 1021.7
20191208061604 46 88 0.0 0.0 0.00 0.00 0.00 93 1021.8
20191208060116 46 88 0.0 0.0 0.00 0.00 0.00 93 1021.7
20191208054618 47 88 0.0 0.0 0.00 0.00 0.00 93 1021.9
20191208053137 47 88 0.0 0.0 0.00 0.00 0.00 93 1022.2
20191208051605 47 88 0.0 0.0 0.00 0.00 0.00 92 1022.0
20191208050054 47 88 0.0 0.0 0.00 0.00 0.00 92 1022.2
20191208044553 48 88 0.0 0.0 0.00 0.00 0.00 92 1022.4
20191208043122 48 88 0.0 0.0 0.00 0.00 0.00 92 1022.3
20191208041606 49 88 0.0 0.0 0.00 0.00 0.00 92 1022.6
20191208040121 49 88 0.0 0.0 0.00 0.00 0.00 91 1022.5
20191208034616 49 88 0.0 0.0 0.00 0.00 0.00 91 1022.5
20191208033047 49 88 0.0 0.0 0.00 0.00 0.00 91 1022.6
20191208031619 50 88 0.0 0.0 0.00 0.00 0.00 91 1022.7
20191208030106 50 88 0.0 0.0 0.00 0.00 0.00 90 1022.7
20191208024551 51 88 0.0 0.0 0.00 0.00 0.00 89 1022.6
20191208023130 51 88 0.0 0.0 0.00 0.00 0.00 89 1022.6
20191208021542 52 88 0.0 0.0 0.00 0.00 0.00 88 1022.7
20191208020055 52 88 0.0 0.0 0.00 0.00 0.00 88 1022.8
20191208014617 53 88 0.0 0.0 0.00 0.00 0.00 87 1022.7
20191208013136 53 88 0.0 0.0 0.00 0.00 0.00 86 1023.0
20191208011540 54 88 0.0 0.0 0.00 0.00 0.00 86 1022.9
20191208010107 55 88 0.0 0.0 0.00 0.00 0.00 84 1022.9
20191208004551 56 88 0.0 0.0 0.00 0.00 0.00 83 1023.0
20191208003124 57 88 0.0 0.0 0.00 0.00 0.00 81 1022.8
20191208001534 58 88 0.0 0.0 0.00 0.00 0.00 80 1022.7
20191208000030 59 88 0.0 0.0 0.00 0.00 0.00 78 1022.7
20191207234543 60 88 0.0 0.0 0.00 0.00 0.00 74 1022.5
20191207233043 62 88 0.0 0.0 0.00 0.00 0.00 73 1022.6
20191207231556 63 88 0.0 0.0 0.00 0.00 0.00 70 1022.7
20191207230041 64 88 0.0 0.0 0.00 0.00 0.00 68 1022.6
20191207224605 66 88 0.0 0.0 0.00 0.00 0.00 67 1022.4
20191207223042 67 88 0.0 0.0 0.00 0.00 0.00 63 1022.6
20191207221539 68 88 0.0 0.0 0.00 0.00 0.00 61 1022.8
20191207220103 69 88 0.0 0.0 0.00 0.00 0.00 57 1022.8
20191207214529 69 88 0.0 0.0 0.00 0.00 0.00 57 1022.8
20191207213028 69 69 0.0 0.0 0.00 0.00 0.00 55 1022.9
20191207211532 70 69 0.0 0.0 0.00 0.00 0.00 55 1022.9
20191207210043 70 69 0.0 0.0 0.00 0.00 0.00 54 1023.1
20191207204519 71 26 0.0 0.0 0.00 0.00 0.00 54 1023.2
20191207203040 71 150 0.0 0.0 0.00 0.00 0.00 54 1023.3
20191207201540 70 251 0.0 0.0 0.00 0.00 0.00 56 1023.3
20191207200024 69 128 1.0 0.0 0.00 0.00 0.00 56 1023.7
20191207194507 69 40 0.0 0.0 0.00 0.00 0.00 57 1023.8
20191207193004 68 5 0.0 0.0 0.00 0.00 0.00 57 1024.1
20191207191630 68 14 0.0 0.0 0.00 0.00 0.00 56 1024.3
20191207190156 68 32 0.0 0.0 0.00 0.00 0.00 56 1024.5
20191207184745 67 31 0.0 0.0 0.00 0.00 0.00 57 1024.5
20191207183157 66 165 0.0 0.0 0.00 0.00 0.00 59 1025.0
20191207181840 65 16 0.0 0.0 0.00 0.00 0.00 59 1025.2
20191207180146 64 69 0.0 0.0 0.00 0.00 0.00 63 1025.6
20191207174642 64 75 0.0 0.0 0.00 0.00 0.00 64 1026.1
20191207173130 63 78 0.0 0.0 0.00 0.00 0.00 65 1026.2
20191207171656 62 170 0.0 0.0 0.00 0.00 0.00 67 1026.3
20191207170115 61 51 0.0 0.0 0.00 0.00 0.00 70 1026.4
20191207164600 60 80 1.0 0.0 0.00 0.00 0.00 71 1026.7
20191207163052 59 59 0.0 0.0 0.00 0.00 0.00 75 1026.7
20191207161547 58 64 0.0 0.0 0.00 0.00 0.00 76 1026.7
20191207160052 56 179 1.0 0.0 0.00 0.00 0.00 77 1026.6
20191207154545 55 90 0.0 0.0 0.00 0.00 0.00 80 1026.8
20191207153020 54 355 0.0 0.0 0.00 0.00 0.00 80 1026.7
20191207151520 52 17 0.0 0.0 0.00 0.00 0.00 81 1026.7
20191207150022 51 22 0.0 0.0 0.00 0.00 0.00 82 1026.7
20191207144520 49 259 0.0 0.0 0.00 0.00 0.00 84 1026.7
20191207143028 48 40 0.0 0.0 0.00 0.00 0.00 87 1026.9
20191207141519 47 40 0.0 0.0 0.00 0.00 0.00 89 1026.8
20191207140052 46 40 0.0 0.0 0.00 0.00 0.00 90 1026.7
20191207134512 45 40 0.0 0.0 0.00 0.00 0.00 90 1026.7
20191207133054 45 40 0.0 0.0 0.00 0.00 0.00 90 1026.6
20191207131508 45 40 0.0 0.0 0.00 0.00 0.00 89 1026.4
20191207130015 45 40 0.0 0.0 0.00 0.00 0.00 89 1026.3
20191207124518 46 40 0.0 0.0 0.00 0.00 0.00 89 1026.2
20191207123001 46 40 0.0 0.0 0.00 0.00 0.00 89 1025.8
20191207121734 46 40 0.0 0.0 0.00 0.00 0.00 89 1025.7
20191207120208 46 40 0.0 0.0 0.00 0.00 0.00 88 1025.6
20191207114717 46 40 0.0 0.0 0.00 0.00 0.00 88 1025.5
20191207113210 47 40 0.0 0.0 0.00 0.00 0.00 88 1025.3
20191207111619 47 40 0.0 0.0 0.00 0.00 0.00 87 1025.2
20191207110150 47 40 0.0 0.0 0.00 0.00 0.00 86 1025.0
20191207104625 48 40 0.0 0.0 0.00 0.00 0.00 86 1024.9
20191207103138 48 40 0.0 0.0 0.00 0.00 0.00 85 1024.8
20191207101826 49 40 0.0 0.0 0.00 0.00 0.00 84 1024.7
20191207100115 49 40 0.0 0.0 0.00 0.00 0.00 83 1024.6
20191207094702 49 40 0.0 0.0 0.00 0.00 0.00 83 1024.7
20191207093123 50 40 0.0 0.0 0.00 0.00 0.00 83 1024.8
20191207091553 50 40 0.0 0.0 0.00 0.00 0.00 83 1024.8
20191207090215 50 40 0.0 0.0 0.00 0.00 0.00 82 1024.9